Location: *
(12.1833°S, 34.3667°E)
Time: 09:00:40
(UTC+00:00)

Daily predictions for brighter satellites

Satellite Brightness Start Highest point End
(mag) Time Altitude Azimuth Time Altitude Azimuth Time Altitude Azimuth
Cosmos 2098 Rocket 4.1 15:45:40 10° N 15:52:40 68° E 15:58:35 10° SSE
CORIOLIS 4.2 15:54:12 10° SSE 15:59:40 86° ENE 16:05:04 10° NNW
YAOGAN 1 3.9 15:58:48 10° SE 16:01:52 19° E 16:04:55 10° NE
SL-16 R/B 2.9 16:00:38 10° NNE 16:05:32 31° ENE 16:10:29 10° SE
SL-08 ROCKET BODY 4.5 15:59:31 10° N 16:05:33 88° E 16:11:45 10° S
GPS 2-04 Rocket1 3.7 16:05:12 10° WSW 16:08:37 40° NW 16:12:10 10° NNE
GP-B 4.1 16:10:20 10° NE 16:13:57 25° E 16:17:37 10° SSE
CSL-04 Rocket 4.3 16:09:33 10° SE 16:14:18 32° ENE 16:19:02 10° NNE
Cosmos 2056 Rocket 3.7 16:12:03 10° S 16:17:18 54° ESE 16:22:33 10° NNE
Ariane H10-3 4.0 16:14:21 10° WNW 16:18:04 19° NNW 16:20:01 10° NNE
Cosmos 1441 Rocket 3.3 16:15:12 10° S 16:19:10 84° W 16:23:03 10° N
CZ-4 R/B 1.4 16:17:10 10° SSE 16:20:55 48° E 16:24:37 10° N
SAR-Lupe-2 3.4 16:20:22 10° NNE 16:23:54 79° ESE 16:27:29 10° S
USA 267 4.1 16:19:19 12° ENE 16:24:29 31° SE 16:30:06 10° S
YAOGAN 6 2.8 16:22:07 10° SSE 16:25:34 46° E 16:29:01 10° N
Okean 2 3.5 16:23:09 10° N 16:27:10 53° E 16:31:15 10° SSE
Cosmos 1624 Rocket 3.9 16:24:21 10° S 16:29:38 79° ESE 16:34:50 10° NNE
ARIANE 5 R/B 3.9 16:27:57 10° NNW 16:30:16 19° NNE 16:33:41 13° ENE
Lacrosse 4 Rocket 2.9 16:27:54 10° NNE 16:29:54 17° ENE 16:29:54 17° ENE
USA 32 4.2 16:25:48 10° NNE 16:30:48 47° E 16:35:51 10° SSE
ATLAS CENTAUR R/B 3.5 16:31:25 10° SSE 16:32:54 14° SE 16:32:54 14° SE
Lacrosse 5 2.0 16:29:15 10° SSW 16:34:15 52° ESE 16:38:06 16° NE
Cosmos 1269 Rocket 3.9 16:32:11 10° N 16:37:26 69° ENE 16:42:43 10° SSE
SL-4 R/B 1.9 16:35:46 10° SSW 16:40:11 77° SE 16:42:41 23° NE
H-2A R/B 3.6 16:08:47 10° WSW 16:41:36 45° S 16:45:10 22° ESE
Palapa B4 Rocket 3.3 16:39:45 10° W 16:44:26 55° SSW 16:46:09 29° SE
CZ-3B R/B 4.2 16:24:28 10° WSW 16:48:24 84° SSE 16:56:58 25° ENE
SL-24 R/B 4.3 16:47:09 10° S 16:52:03 78° E 16:57:16 10° N
Palapa 6 Rocket 4.4 16:45:05 10° WSW 16:52:19 58° NNW 16:56:00 25° NE
Cosmos 2082 3.6 16:47:24 10° SSW 16:53:07 77° ESE 16:58:49 10° NNE
Cosmos 2322 Rocket 2.2 16:52:34 10° NNW 16:58:11 84° WSW 17:03:51 10° SSE
Cosmos 2074 Rocket 3.9 16:55:22 10° N 17:01:30 69° E 17:07:41 10° S
GPS 2-12 Rocket1 3.6 16:57:44 10° W 17:02:06 47° SSW 17:03:14 38° SSE
Hubble Space Telescope 1.5 16:59:14 10° SW 17:03:00 40° SSE 17:03:00 40° SSE
SEDSat Delta rocket 3.4 17:02:05 10° NW 17:05:23 43° N 17:05:23 43° N
Cosmos 1378 3.0 17:02:16 10° N 17:05:59 86° W 17:06:35 61° S
ADEOS Rocket 3.4 17:01:21 10° NNE 17:09:06 75° ESE 17:16:36 10° S
Cosmos 2227 Rocket 3.7 17:05:55 10° SW 17:11:03 36° WNW 17:16:09 10° N
Cosmos 1452 Rocket 3.4 17:06:46 10° S 17:12:00 63° ESE 17:12:10 62° E
Centaur AC-72 3.3 17:10:53 10° WSW 17:16:30 51° S 17:18:41 38° ESE
Ariane H10 4.2 16:59:40 10° W 17:20:32 39° NNW 17:22:59 28° NNE
Cosmos 2297 Rocket 4.3 17:17:21 10° SW 17:21:55 26° WNW 17:26:29 10° NNW
ARIANE 5 R/B 3.8 17:22:09 10° NW 17:23:53 12° NNW 17:24:04 12° NNW
Atlas Centaur 2 2.8 17:24:25 10° WSW 17:26:26 30° WSW 17:26:26 30° WSW
Cosmos 2360 Rocket 2.2 17:23:19 10° NNW 17:28:14 68° N 17:28:14 68° N
Gbstr 26 Del rocket 4.1 17:28:27 10° SSW 17:31:44 46° SSW 17:31:44 46° SSW
Ariane Rocket 4.1 17:50:47 40° WNW 17:50:47 40° WNW 17:54:33 10° NNW
H-2A ROCKET BODY 3.7 17:30:17 10° WNW 17:50:30 42° SW 17:52:27 35° S
USA 267 4.1 18:06:44 42° NW 18:07:12 43° NW 18:13:20 10° SW
ATLAS CENTAUR R/B 4.5 18:08:40 10° SW 18:09:12 13° SW 18:09:12 13° SW
CZ-3C R/B 4.3 18:47:08 10° WSW 18:48:18 19° WSW 18:48:18 19° WSW
CZ-3B R/B 4.4 18:55:11 10° WSW 19:07:18 35° WNW 19:07:18 35° WNW
